Year,Month,Day,Hour,Minute,Value (Times are PST for temperature in C)
2008,05,15,00,03,10.60
2008,05,15,00,04,10.60
2008,05,15,00,05,10.60
2008,05,15,00,06,10.60
2008,05,15,00,07,10.60
2008,05,15,00,08,10.60
2008,05,15,00,09,10.60
2008,05,15,00,10,10.60
2008,05,15,00,11,10.60
2008,05,15,00,12,10.60
2008,05,15,00,13,10.00
2008,05,15,00,14,10.00
2008,05,15,00,15,10.00
2008,05,15,00,16,10.00
2008,05,15,00,17,9.90
2008,05,15,00,18,9.90
2008,05,15,00,19,9.90
2008,05,15,00,20,9.90
2008,05,15,00,21,9.90
2008,05,15,00,22,9.90
2008,05,15,00,23,9.90
2008,05,15,00,24,9.90
2008,05,15,00,25,9.70
2008,05,15,00,26,9.70
2008,05,15,00,27,9.70
2008,05,15,00,28,9.70
2008,05,15,00,29,9.70
2008,05,15,00,30,9.70
2008,05,15,00,31,9.70
2008,05,15,00,32,9.70
2008,05,15,00,33,9.70
2008,05,15,00,34,9.50
2008,05,15,00,35,9.50
2008,05,15,00,36,9.50
2008,05,15,00,37,9.50
2008,05,15,00,38,9.50
2008,05,15,00,39,9.40
2008,05,15,00,40,9.40
2008,05,15,00,41,9.40
2008,05,15,00,42,9.40
2008,05,15,00,43,9.40
2008,05,15,00,44,9.40
2008,05,15,00,45,9.40
2008,05,15,00,46,9.40
2008,05,15,00,47,9.40
2008,05,15,00,49,9.40
2008,05,15,00,51,9.40
2008,05,15,00,52,9.40
2008,05,15,00,54,9.40
2008,05,15,00,55,9.40
2008,05,15,00,57,9.60
2008,05,15,00,58,9.60
2008,05,15,00,59,9.60
2008,05,15,01,00,9.60
2008,05,15,01,01,9.60
2008,05,15,01,02,9.60
2008,05,15,01,03,9.60
2008,05,15,01,04,9.60
2008,05,15,01,05,9.60
2008,05,15,01,06,9.60
2008,05,15,01,07,9.60
2008,05,15,01,08,9.60
2008,05,15,01,09,9.60
2008,05,15,01,11,9.40
2008,05,15,01,12,9.40
2008,05,15,01,13,9.40
2008,05,15,01,14,9.40
2008,05,15,01,15,9.40
2008,05,15,01,16,9.40
2008,05,15,01,17,9.40
2008,05,15,01,18,9.40
2008,05,15,01,19,9.30
2008,05,15,01,20,9.30
2008,05,15,01,21,9.30
2008,05,15,01,22,9.30
2008,05,15,01,23,9.30
2008,05,15,01,25,9.30
2008,05,15,01,26,9.30
2008,05,15,01,28,9.30
2008,05,15,01,30,9.30
2008,05,15,01,32,9.40
2008,05,15,01,33,9.40
2008,05,15,01,34,9.40
2008,05,15,01,35,9.40
2008,05,15,01,36,9.40
2008,05,15,01,37,9.40
2008,05,15,01,38,9.40
2008,05,15,01,39,9.40
2008,05,15,01,40,9.40
2008,05,15,01,41,9.60
2008,05,15,01,42,9.60
2008,05,15,01,43,9.60
2008,05,15,01,44,9.60
2008,05,15,01,45,9.60
2008,05,15,01,46,9.60
2008,05,15,01,47,9.60
2008,05,15,01,49,9.60
2008,05,15,01,50,9.60
2008,05,15,01,51,9.60
2008,05,15,01,52,9.60
2008,05,15,01,53,9.60
2008,05,15,01,54,9.60
2008,05,15,01,55,9.60
2008,05,15,01,56,9.60
2008,05,15,01,57,9.60
2008,05,15,01,58,9.60
2008,05,15,01,59,9.60
2008,05,15,02,00,9.60
2008,05,15,02,01,9.60
2008,05,15,02,02,9.60
2008,05,15,02,03,10.00
2008,05,15,02,04,10.00
2008,05,15,02,05,10.00
2008,05,15,02,06,10.00
2008,05,15,02,07,10.00
2008,05,15,02,08,10.00
2008,05,15,02,09,10.30
2008,05,15,02,10,10.30
2008,05,15,02,11,10.30
2008,05,15,02,12,10.30
2008,05,15,02,13,10.30
2008,05,15,02,14,10.30
2008,05,15,02,15,10.30
2008,05,15,02,17,10.30
2008,05,15,02,18,10.30
2008,05,15,02,19,10.30
2008,05,15,02,20,10.30
2008,05,15,02,21,10.30
2008,05,15,02,22,10.30
2008,05,15,02,23,10.30
2008,05,15,02,24,10.30
2008,05,15,02,25,10.30
2008,05,15,02,26,10.30
2008,05,15,02,27,10.30
2008,05,15,02,28,10.30
2008,05,15,02,29,10.30
2008,05,15,02,30,10.30
2008,05,15,02,31,10.00
2008,05,15,02,32,10.00
2008,05,15,02,33,10.00
2008,05,15,02,34,10.00
2008,05,15,02,35,10.00
2008,05,15,02,36,10.00
2008,05,15,02,37,10.00
2008,05,15,02,38,10.00
2008,05,15,02,39,9.70
2008,05,15,02,40,9.70
2008,05,15,02,41,9.70
2008,05,15,02,42,9.70
2008,05,15,02,44,9.70
2008,05,15,02,45,9.70
2008,05,15,02,46,9.70
2008,05,15,02,47,9.70
2008,05,15,02,48,9.60
2008,05,15,02,49,9.60
2008,05,15,02,50,9.60
2008,05,15,02,51,9.60
2008,05,15,02,52,9.60
2008,05,15,02,54,9.60
2008,05,15,02,55,9.60
2008,05,15,02,56,9.60
2008,05,15,02,57,9.60
2008,05,15,02,58,9.60
2008,05,15,02,59,9.60
2008,05,15,03,00,9.60
2008,05,15,03,01,9.40
2008,05,15,03,02,9.40
2008,05,15,03,03,9.40
2008,05,15,03,04,9.40
2008,05,15,03,05,9.40
2008,05,15,03,06,9.40
2008,05,15,03,07,9.40
2008,05,15,03,08,9.40
2008,05,15,03,09,9.40
2008,05,15,03,10,9.30
2008,05,15,03,11,9.30
2008,05,15,03,12,9.30
2008,05,15,03,13,9.30
2008,05,15,03,14,9.30
2008,05,15,03,15,9.30
2008,05,15,03,16,9.40
2008,05,15,03,17,9.40
2008,05,15,03,18,9.40
2008,05,15,03,19,9.40
2008,05,15,03,20,9.40
2008,05,15,03,21,9.40
2008,05,15,03,22,9.40
2008,05,15,03,23,9.20
2008,05,15,03,24,9.20
2008,05,15,03,25,9.20
2008,05,15,03,26,9.20
2008,05,15,03,27,9.20
2008,05,15,03,28,9.20
2008,05,15,03,29,9.20
2008,05,15,03,30,9.20
2008,05,15,03,31,9.20
2008,05,15,03,32,9.20
2008,05,15,03,34,9.20
2008,05,15,03,35,9.20
2008,05,15,03,36,9.20
2008,05,15,03,37,9.30
2008,05,15,03,38,9.30
2008,05,15,03,39,9.30
2008,05,15,03,40,9.30
2008,05,15,03,41,9.30
2008,05,15,03,42,9.30
2008,05,15,03,43,9.30
2008,05,15,03,44,9.30
2008,05,15,03,45,9.70
2008,05,15,03,46,9.70
2008,05,15,03,47,9.70
2008,05,15,03,48,9.70
2008,05,15,03,49,9.70
2008,05,15,03,50,9.70
2008,05,15,03,51,9.70
2008,05,15,03,52,9.70
2008,05,15,03,53,9.70
2008,05,15,03,54,9.80
2008,05,15,03,55,9.80
2008,05,15,03,56,9.80
2008,05,15,03,57,9.80
2008,05,15,03,58,9.80
2008,05,15,03,59,9.70
2008,05,15,04,00,9.70
2008,05,15,04,01,9.70
2008,05,15,04,02,9.70
2008,05,15,04,03,9.70
2008,05,15,04,04,9.70
2008,05,15,04,05,9.70
2008,05,15,04,06,9.70
2008,05,15,04,07,9.70
2008,05,15,04,08,9.70
2008,05,15,04,09,9.70
2008,05,15,04,10,9.70
2008,05,15,04,11,9.70
2008,05,15,04,12,9.70
2008,05,15,04,13,9.70
2008,05,15,04,14,9.70
2008,05,15,04,15,9.70
2008,05,15,04,16,9.70
2008,05,15,04,17,9.80
2008,05,15,04,18,9.80
2008,05,15,04,19,9.80
2008,05,15,04,20,9.80
2008,05,15,04,21,9.80
2008,05,15,04,30,9.70
2008,05,15,04,31,9.70
2008,05,15,04,32,9.70
2008,05,15,04,33,9.70
2008,05,15,04,34,9.70
2008,05,15,04,35,9.70
2008,05,15,04,36,9.70
2008,05,15,04,37,9.70
2008,05,15,04,38,9.70
2008,05,15,04,39,9.60
2008,05,15,04,40,9.60
2008,05,15,04,41,9.60
2008,05,15,04,42,9.60
2008,05,15,04,43,9.60
2008,05,15,04,44,9.60
2008,05,15,04,45,9.60
2008,05,15,04,46,9.60
2008,05,15,04,47,9.60
2008,05,15,04,48,9.60
2008,05,15,04,49,9.60
2008,05,15,04,50,9.60
2008,05,15,04,51,9.60
2008,05,15,05,37,9.70
2008,05,15,05,38,9.70
2008,05,15,05,39,9.70
2008,05,15,05,40,9.70
2008,05,15,05,41,9.70
2008,05,15,05,42,9.70
2008,05,15,05,43,9.70
2008,05,15,05,44,9.70
2008,05,15,05,45,9.70
2008,05,15,21,54,11.90
2008,05,15,21,55,11.90
2008,05,15,21,56,11.90
2008,05,15,21,57,11.90
2008,05,15,21,58,11.90
2008,05,15,21,59,11.90
2008,05,15,22,00,12.20
2008,05,15,22,01,12.20
2008,05,15,22,02,12.20
2008,05,15,22,03,12.20
2008,05,15,22,04,12.20
2008,05,15,22,05,12.20
2008,05,15,22,06,12.20
2008,05,15,22,07,12.20
2008,05,15,22,08,12.20
2008,05,15,22,09,12.20
2008,05,15,22,11,12.20
2008,05,15,22,12,12.20
2008,05,15,22,13,12.20
2008,05,15,22,14,12.20
2008,05,15,22,15,12.20
2008,05,15,22,16,12.50
2008,05,15,22,17,12.50
2008,05,15,22,18,12.50
2008,05,15,22,19,12.50
2008,05,15,22,20,12.50
2008,05,15,22,21,12.50
2008,05,15,22,22,12.20
2008,05,15,22,23,12.20
2008,05,15,22,24,12.20
2008,05,15,22,25,12.20
2008,05,15,22,26,12.20
2008,05,15,22,27,12.20
2008,05,15,22,28,12.20
2008,05,15,22,29,12.20
2008,05,15,22,30,12.20
2008,05,15,22,31,12.20
2008,05,15,22,32,12.20
2008,05,15,22,33,12.20
2008,05,15,22,34,12.20
2008,05,15,22,35,12.20
2008,05,15,22,36,12.20
2008,05,15,22,37,12.20
2008,05,15,22,38,12.20
2008,05,15,22,39,12.20
2008,05,15,22,40,12.20
2008,05,15,22,41,12.20
2008,05,15,22,42,12.20
2008,05,15,22,43,10.90
2008,05,15,22,44,10.90
2008,05,15,22,45,10.90
2008,05,15,22,46,10.90
2008,05,15,22,47,10.80
2008,05,15,22,48,10.80
2008,05,15,22,49,10.80
2008,05,15,22,51,10.80
2008,05,15,22,52,10.80
2008,05,15,22,53,10.80
2008,05,15,22,54,10.80
2008,05,15,22,55,10.80
2008,05,15,22,56,10.80
2008,05,15,22,57,10.80
2008,05,15,22,58,10.80
2008,05,15,22,59,10.80
2008,05,15,23,01,10.80
2008,05,15,23,02,10.80
2008,05,15,23,03,10.80
2008,05,15,23,04,10.80
2008,05,15,23,05,10.80
2008,05,15,23,06,10.80
2008,05,15,23,07,10.80
2008,05,15,23,08,10.80
2008,05,15,23,09,10.80
2008,05,15,23,10,10.80
2008,05,15,23,11,10.80
2008,05,15,23,12,10.80
2008,05,15,23,13,10.80
2008,05,15,23,14,10.80
2008,05,15,23,15,10.80
2008,05,15,23,16,10.80
2008,05,15,23,17,10.80
2008,05,15,23,18,10.80
2008,05,15,23,19,10.80
2008,05,15,23,20,10.80
2008,05,15,23,21,10.80
2008,05,15,23,22,10.80
2008,05,15,23,23,10.80
2008,05,15,23,24,10.80
2008,05,15,23,25,10.80
2008,05,15,23,26,10.80
2008,05,15,23,27,10.80
2008,05,15,23,28,10.80
2008,05,15,23,29,10.80
2008,05,15,23,30,10.80
2008,05,15,23,31,10.80
2008,05,15,23,32,10.80
2008,05,15,23,33,10.80
2008,05,15,23,34,10.80
2008,05,15,23,35,10.80
2008,05,15,23,36,10.80
2008,05,15,23,37,10.80
2008,05,15,23,38,10.80
2008,05,15,23,39,10.80
2008,05,15,23,40,10.80
2008,05,15,23,41,10.80
2008,05,15,23,42,10.80
2008,05,15,23,43,10.10
2008,05,15,23,44,10.10
2008,05,15,23,45,10.10
2008,05,15,23,46,10.10
2008,05,15,23,48,9.90
2008,05,15,23,49,9.90
2008,05,15,23,50,9.90
2008,05,15,23,51,9.90
2008,05,15,23,52,9.90
2008,05,15,23,54,9.90
2008,05,15,23,55,9.90
2008,05,15,23,56,9.90
2008,05,15,23,57,9.90
2008,05,15,23,58,9.90
2008,05,15,23,59,9.90
